CAS500-3

Last updated on Mon Sep 07 2026 00:02:46 GMT+0000 (Coordinated Universal Time)

1 66655U 25274F 26249.36238177 .00000683 00000+0 79655-4 0 9990 2 66655 97.7422 175.5541 0003847 348.0610 12.0515 14.88307763 42224
UTC large
Height (km)
Speed (km/s)
/
Latitude / Longitude
Inclination (degrees)
Orbital Period (minutes)
Azimuth
Elevation
Range (km)
Doppler Factor

Next 0 passes for location: London (51.5072 / 0.1276)

No passes found over London.
CAS500-3